TimeEST,TemperatureF,Dew PointF,Humidity,Sea Level PressureIn,VisibilityMPH,Wind Direction,Wind SpeedMPH,Gust SpeedMPH,PrecipitationIn,Events,Conditions,WindDirDegrees,DateUTC
12:53 AM,39.0,35.1,86,30.09,5.0,Calm,Calm,-,N/A,,Clear,0,2013-01-21 05:53:00
1:53 AM,37.9,35.1,89,30.08,5.0,Calm,Calm,-,N/A,,Clear,0,2013-01-21 06:53:00
2:53 AM,36.0,35.1,97,30.07,4.0,Calm,Calm,-,N/A,,Clear,0,2013-01-21 07:53:00
4:53 AM,36.0,33.1,89,30.06,4.0,Calm,Calm,-,N/A,,Clear,0,2013-01-21 09:53:00
5:53 AM,34.0,32.0,92,30.06,2.5,Calm,Calm,-,N/A,,Clear,0,2013-01-21 10:53:00
6:14 AM,33.8,32.0,93,30.05,3.0,Calm,Calm,-,N/A,,Clear,0,2013-01-21 11:14:00
6:53 AM,34.0,32.0,92,30.06,3.0,Calm,Calm,-,N/A,,Clear,0,2013-01-21 11:53:00
7:53 AM,35.1,33.1,92,30.07,4.0,Calm,Calm,-,N/A,,Clear,0,2013-01-21 12:53:00
8:13 AM,35.6,33.8,93,30.07,2.5,Calm,Calm,-,N/A,,Clear,0,2013-01-21 13:13:00
8:26 AM,35.6,33.8,93,30.07,3.0,Calm,Calm,-,N/A,,Clear,0,2013-01-21 13:26:00
8:53 AM,39.9,36.0,86,30.09,9.0,Calm,Calm,-,N/A,,Clear,0,2013-01-21 13:53:00
9:53 AM,48.0,37.0,66,30.10,10.0,NW,3.5,-,N/A,,Clear,310,2013-01-21 14:53:00
10:53 AM,57.9,35.1,42,30.09,10.0,WSW,5.8,-,N/A,,Clear,250,2013-01-21 15:53:00
11:53 AM,61.0,30.9,32,30.06,10.0,West,11.5,-,N/A,,Clear,270,2013-01-21 16:53:00
12:53 PM,63.0,28.9,28,30.02,10.0,West,10.4,18.4,N/A,,Clear,260,2013-01-21 17:53:00
1:53 PM,64.0,28.0,26,29.99,10.0,WSW,11.5,-,N/A,,Clear,250,2013-01-21 18:53:00
2:53 PM,66.0,28.9,25,29.98,5.0,West,13.8,26.5,N/A,,Haze,280,2013-01-21 19:53:00
3:53 PM,64.9,28.9,26,29.98,10.0,West,8.1,-,N/A,,Clear,270,2013-01-21 20:53:00
4:53 PM,63.0,26.1,25,29.98,10.0,WNW,9.2,-,N/A,,Clear,290,2013-01-21 21:53:00
5:53 PM,60.1,28.0,30,30.01,10.0,West,8.1,-,N/A,,Clear,280,2013-01-21 22:53:00
6:53 PM,57.0,30.0,36,30.01,10.0,West,6.9,-,N/A,,Clear,270,2013-01-21 23:53:00
7:53 PM,55.0,30.9,40,30.02,10.0,West,9.2,-,N/A,,Clear,260,2013-01-22 00:53:00
8:53 PM,55.0,32.0,42,30.04,10.0,West,10.4,-,N/A,,Clear,280,2013-01-22 01:53:00
9:53 PM,53.1,32.0,45,30.05,10.0,WNW,9.2,-,N/A,,Clear,290,2013-01-22 02:53:00
10:53 PM,52.0,27.0,38,30.07,10.0,WNW,11.5,-,N/A,,Clear,290,2013-01-22 03:53:00
11:53 PM,50.0,23.0,35,30.07,10.0,WNW,11.5,18.4,N/A,,Clear,290,2013-01-22 04:53:00